Home   Weather   Sikar   Past weeks

Flag for India Past Weather in Sikar, Rajasthan, India — Yesterday and Last 2 Weeks

Now
66 °F

Clear.


Feels Like: 66 °F
Forecast: 54 / 83 °F
Wind: 5 mph from East

Location: Jaipur / Sanganer

Current Time: Dec 8, 2016 at 9:38:08 pm

Latest Report: Dec 8, 2016 at 9:00 pm


Visibility: 2 mi

Pressure: 30.04 "Hg

Humidity: 64%

Dew Point: 54 °F

Location of SikarLocation

Past Weather in Sikar — Graph

°F

Sikar Temperature Yesterday

Maximum temperature yesterday: 84 °F (at 3:00 pm)
Minimum temperature yesterday: 54 °F (at 6:00 am)
Average temperature yesterday: 68 °F

High & Low Weather Summary for the Past Weeks

 TemperatureHumidityPressure
High88 °F (Nov 29, 2:30 pm)100% (Dec 5, 12:00 am)30.24 "Hg (Dec 5, 12:00 am)
Low52 °F (Dec 4, 6:30 am)14% (Nov 24, 3:30 pm)29.92 "Hg (Nov 29, 2:30 pm)
Average70 °F40%30.05 "Hg
* Reported Nov 23 8:00 pm — Dec 8 7:30 pm, Sikar, Weather by CustomWeather, © 2016

Note: Actual official high and low records may vary slightly from our data, if they occured in-between our weather recording intervals... More about our weather records

Advertising

Sikar Weather History for the Previous 24 Hours

Scroll right to see more
 ConditionsComfort  
Time TempWeatherWind HumidityBarometerVisibility
7:30 pm
Thu, Dec 8
70 °FClear.2 mph46%30.01 "Hg1 mi
7:00 pm72 °FHaze.No wind38%30.01 "Hg2 mi
6:30 pm72 °FHaze.No wind41%30.01 "Hg2 mi
6:00 pm75 °FHaze.2 mph31%29.98 "Hg2 mi
4:30 pm82 °FHaze.6 mph23%29.98 "Hg2 mi
4:00 pm82 °FHaze.6 mph23%29.98 "Hg2 mi
3:00 pm84 °FHaze.6 mph20%29.98 "Hg2 mi
2:30 pm82 °FHaze.5 mph26%30.01 "Hg2 mi
2:00 pm82 °FHaze.5 mph26%30.01 "Hg2 mi
1:00 pm81 °FClear.6 mph30%30.04 "Hg1 mi
12:30 pm79 °FClear.6 mph34%30.04 "Hg1 mi
12:00 pm77 °FClear.5 mph39%30.07 "Hg1 mi
11:30 am75 °FClear.5 mph44%30.09 "Hg1 mi
11:00 am75 °FClear.5 mph44%30.09 "Hg1 mi
10:30 am73 °FClear.3 mph50%30.09 "Hg1 mi
10:00 am72 °FHaze.5 mph50%30.09 "Hg1 mi
9:30 am70 °FSmoke.1 mph57%30.09 "Hg1 mi
7:00 am54 °FFog.No wind88%30.07 "Hg1 mi
6:30 am55 °FFog.No wind88%30.04 "Hg1 mi
6:00 am54 °FFog.1 mph94%30.04 "Hg1 mi
5:30 am55 °FFog.No wind88%30.04 "Hg1 mi
5:00 am55 °FClear.No wind88%30.01 "Hg1 mi
11:00 pm
Wed, Dec 7
61 °FClear.No wind63%30.07 "Hg1 mi
10:00 pm63 °FClear.No wind56%30.07 "Hg1 mi
9:30 pm66 °FClear.3 mph49%30.07 "Hg1 mi
Weather by CustomWeather, © 2016

See weather overviewHow to use our weather pages